Date String (YYYY-MM-DD hh:mm:ss) UTC,Instrument flags,absolute air pressure of the measurement (hPa),sample flow rate (lpm),inlet stack bypass flow (lpm),air temperature of the measurement (°C),ambient temperature measured by the external sensor (°C),aerosol sample conditioner tube jacket temperature (°C),OPC LED temperature (°C),internal box temperature (°C),relative humidity of the measurement (%),span deviation,mass concentration of particles derived from Lorenz-Mie calculation of OPC scattering (μg/m³),mass concentration of particles derived from Lorenz-Mie calculation of OPC scattering (μg/m³),mass concentration of particles derived from Lorenz-Mie calculation of OPC scattering (μg/m³)
DateTimeUTC,F1_M11,P_M11,Q1_M11,Q2_M11,T1_M11,T2_M11,T3_M11,T4_M11,T5_M11,U1_M11,ZSPAN_M11,X0_M11,X2_M11,X1_M11
2023-11-23 23:00:00,SystemResetWarning,0830.1,4.99,000.00,020.7,019.9,000.0,029.0,021.9,17.8,0000.0,0012.59,0004.60,0003.73
2023-11-23 23:01:00,SystemResetWarning,0830.1,4.99,000.00,020.7,019.9,000.0,029.0,021.9,17.8,0000.0,0012.66,0004.66,0003.77
2023-11-23 23:02:00,SystemResetWarning,0830.1,5.00,000.00,020.7,019.9,000.0,029.0,021.9,17.8,0000.0,0013.00,0004.72,0003.82
2023-11-23 23:03:00,SystemResetWarning,0830.1,5.01,000.00,020.7,019.9,000.0,029.0,022.0,17.8,0000.0,0012.21,0004.73,0003.87
2023-11-23 23:04:00,SystemResetWarning,0830.1,5.01,000.00,020.7,019.9,000.0,029.0,022.0,17.8,0000.0,0012.17,0004.81,0003.92
2023-11-23 23:05:00,SystemResetWarning,0830.1,5.00,000.00,020.7,019.9,000.0,029.0,021.9,17.8,0000.0,0012.08,0004.88,0003.98
2023-11-23 23:06:00,SystemResetWarning,0830.1,4.98,000.00,020.7,019.8,000.0,029.0,021.9,17.9,0000.0,0013.04,0004.91,0004.03
2023-11-23 23:07:00,SystemResetWarning,0830.2,5.00,000.00,020.7,019.8,000.0,029.0,021.9,17.9,0000.0,0013.88,0004.99,0004.07
2023-11-23 23:08:00,SystemResetWarning,0830.2,5.01,000.00,020.7,019.8,000.0,029.0,022.0,17.9,0000.0,0014.04,0005.03,0004.12
2023-11-23 23:09:00,SystemResetWarning,0830.3,4.99,000.00,020.7,019.8,000.0,029.0,021.9,17.9,0000.0,0013.12,0005.10,0004.18
2023-11-23 23:10:00,SystemResetWarning,0830.2,4.99,000.00,020.7,019.8,000.0,029.0,021.9,17.9,0000.0,0012.39,0005.14,0004.20
2023-11-23 23:11:00,SystemResetWarning,0830.3,5.00,000.00,020.7,019.8,000.0,029.0,021.9,17.9,0000.0,0012.85,0005.16,0004.23
2023-11-23 23:12:00,SystemResetWarning,0830.2,5.00,000.00,020.7,019.8,000.0,029.0,021.9,18.0,0000.0,0013.23,0005.15,0004.24
2023-11-23 23:13:00,SystemResetWarning,0830.2,5.00,000.00,020.7,019.8,000.0,029.0,021.9,18.0,0000.0,0013.58,0005.12,0004.22
2023-11-23 23:14:00,SystemResetWarning,0830.3,5.01,000.00,020.7,019.8,000.0,029.0,021.9,18.0,0000.0,0013.75,0005.14,0004.20
2023-11-23 23:15:00,SystemResetWarning,0830.3,5.01,000.00,020.7,019.8,000.0,029.0,021.9,18.0,0000.0,0013.82,0005.14,0004.19
2023-11-23 23:16:00,SystemResetWarning,0830.3,5.00,000.00,020.7,019.8,000.0,029.0,021.9,18.0,0000.0,0013.67,0005.10,0004.18
2023-11-23 23:17:00,SystemResetWarning,0830.3,4.98,000.00,020.7,019.8,000.0,029.0,021.9,18.0,0000.0,0013.11,0005.11,0004.16
2023-11-23 23:18:00,SystemResetWarning,0830.2,5.00,000.00,020.7,019.9,000.0,029.0,021.9,18.0,0000.0,0012.31,0005.11,0004.14
2023-11-23 23:19:00,SystemResetWarning,0830.2,5.01,000.00,020.7,019.9,000.0,029.0,021.9,18.0,0000.0,0012.56,0005.08,0004.12
2023-11-23 23:20:00,SystemResetWarning,0830.2,4.99,000.00,020.7,019.9,000.0,029.0,021.9,18.0,0000.0,0012.61,0005.06,0004.10
2023-11-23 23:21:00,SystemResetWarning,0830.3,4.99,000.00,020.7,019.9,000.0,029.0,021.9,18.0,0000.0,0012.47,0005.02,0004.08
2023-11-23 23:22:00,SystemResetWarning,0830.2,5.00,000.00,020.7,019.9,000.0,029.0,021.9,18.0,0000.0,0012.20,0004.96,0004.05
2023-11-23 23:23:00,SystemResetWarning,0830.2,5.01,000.00,020.7,019.9,000.0,029.0,021.9,18.0,0000.0,0011.67,0004.93,0004.04
2023-11-23 23:24:00,SystemResetWarning,0830.2,5.01,000.00,020.7,019.9,000.0,029.0,021.9,18.0,0000.0,0011.14,0004.94,0004.05
2023-11-23 23:25:00,SystemResetWarning,0830.2,4.99,000.00,020.7,019.9,000.0,029.0,022.0,18.0,0000.0,0010.73,0004.94,0004.05
2023-11-23 23:26:00,SystemResetWarning,0830.3,4.99,000.00,020.7,019.9,000.0,029.0,021.9,18.0,0000.0,0010.74,0004.92,0004.05
2023-11-23 23:27:00,SystemResetWarning,0830.2,5.00,000.00,020.7,019.9,000.0,029.0,021.9,18.0,0000.0,0011.71,0004.90,0004.03
2023-11-23 23:28:00,SystemResetWarning,0830.2,5.00,000.00,020.7,019.9,000.0,029.0,021.9,18.0,0000.0,0011.76,0004.91,0004.03
2023-11-23 23:29:00,SystemResetWarning,0830.3,5.01,000.00,020.7,019.9,000.0,029.0,021.9,18.0,0000.0,0011.53,0004.88,0004.04
2023-11-23 23:30:00,SystemResetWarning,0830.2,5.00,000.00,020.7,019.9,000.0,029.0,021.9,18.0,0000.0,0011.27,0004.90,0004.03
2023-11-23 23:31:00,SystemResetWarning,0830.2,4.99,000.00,020.7,019.9,000.0,029.0,021.9,18.0,0000.0,0011.36,0004.90,0004.03
2023-11-23 23:32:00,SystemResetWarning,0830.2,4.99,000.00,020.7,019.9,000.0,029.0,021.9,18.0,0000.0,0011.29,0004.89,0004.03
2023-11-23 23:33:00,SystemResetWarning,0830.2,5.00,000.00,020.7,019.9,000.0,029.0,021.9,18.0,0000.0,0011.38,0004.91,0004.02
2023-11-23 23:34:00,SystemResetWarning,0830.2,5.01,000.00,020.7,019.9,000.0,029.0,021.9,18.0,0000.0,0011.39,0004.91,0004.02
2023-11-23 23:35:00,SystemResetWarning,0830.2,5.00,000.00,020.7,019.9,000.0,029.0,022.0,18.0,0000.0,0011.63,0004.93,0004.01
2023-11-23 23:36:00,SystemResetWarning,0830.2,5.00,000.00,020.7,019.9,000.0,029.0,022.0,18.0,0000.0,0011.58,0004.92,0004.00
2023-11-23 23:37:00,SystemResetWarning,0830.3,4.99,000.00,020.7,019.9,000.0,029.0,022.0,17.9,0000.0,0011.59,0004.91,0004.01
2023-11-23 23:38:00,SystemResetWarning,0830.3,4.99,000.00,020.7,019.9,000.0,029.0,021.9,17.9,0000.0,0010.98,0004.92,0004.02
2023-11-23 23:39:00,SystemResetWarning,0830.3,5.00,000.00,020.7,019.9,000.0,029.0,021.9,18.0,0000.0,0010.52,0004.96,0004.04
2023-11-23 23:40:00,SystemResetWarning,0830.2,5.00,000.00,020.7,019.9,000.0,029.0,021.9,17.9,0000.0,0010.82,0004.99,0004.05
2023-11-23 23:41:00,SystemResetWarning,0830.2,5.01,000.00,020.7,019.9,000.0,029.0,022.0,17.9,0000.0,0010.71,0004.95,0004.05
2023-11-23 23:42:00,SystemResetWarning,0830.2,5.00,000.00,020.7,019.9,000.0,029.0,022.0,17.9,0000.0,0010.83,0004.96,0004.06
2023-11-23 23:43:00,SystemResetWarning,0830.2,5.01,000.00,020.7,019.9,000.0,029.0,021.9,17.9,0000.0,0010.56,0004.94,0004.07
2023-11-23 23:44:00,SystemResetWarning,0830.3,5.00,000.00,020.7,019.9,000.0,029.0,021.9,17.9,0000.0,0010.33,0004.90,0004.07
2023-11-23 23:45:00,SystemResetWarning,0830.2,4.99,000.00,020.7,019.9,000.0,029.0,021.9,17.9,0000.0,0010.22,0004.90,0004.07
2023-11-23 23:46:00,SystemResetWarning,0830.2,5.00,000.00,020.7,019.9,000.0,029.0,021.9,17.9,0000.0,0009.91,0004.87,0004.07
2023-11-23 23:47:00,SystemResetWarning,0830.2,5.00,000.00,020.7,019.9,000.0,029.0,021.9,17.9,0000.0,0009.71,0004.87,0004.07
2023-11-23 23:48:00,SystemResetWarning,0830.2,5.00,000.00,020.7,019.9,000.0,029.0,021.9,17.9,0000.0,0009.85,0004.83,0004.05
2023-11-23 23:49:00,SystemResetWarning,0830.3,5.01,000.00,020.7,019.9,000.0,029.0,021.9,17.9,0000.0,0010.24,0004.81,0004.03
2023-11-23 23:50:00,SystemResetWarning,0830.2,5.00,000.00,020.7,019.8,000.0,029.0,021.9,17.9,0000.0,0010.46,0004.79,0004.02
2023-11-23 23:51:00,SystemResetWarning,0830.3,5.01,000.00,020.7,019.8,000.0,029.0,021.9,17.9,0000.0,0010.03,0004.77,0004.00
2023-11-23 23:52:00,SystemResetWarning,0830.2,5.00,000.00,020.7,019.8,000.0,029.0,021.9,17.9,0000.0,0009.91,0004.75,0003.99
2023-11-23 23:53:00,SystemResetWarning,0830.2,4.99,000.00,020.7,019.9,000.0,029.0,021.9,17.9,0000.0,0009.57,0004.72,0003.98
2023-11-23 23:54:00,SystemResetWarning,0830.3,5.00,000.00,020.7,019.9,000.0,029.0,021.9,17.9,0000.0,0009.79,0004.69,0003.98
2023-11-23 23:55:00,SystemResetWarning,0830.3,4.99,000.00,020.7,019.8,000.0,029.0,021.9,17.9,0000.0,0009.95,0004.72,0003.99
2023-11-23 23:56:00,SystemResetWarning,0830.3,5.01,000.00,020.7,019.8,000.0,029.0,021.9,18.0,0000.0,0009.87,0004.73,0004.00
2023-11-23 23:57:00,SystemResetWarning,0830.4,5.01,000.00,020.7,019.8,000.0,029.0,021.9,18.0,0000.0,0010.14,0004.75,0004.02
2023-11-23 23:58:00,SystemResetWarning,0830.5,5.00,000.00,020.7,019.8,000.0,029.0,021.9,18.0,0000.0,0010.89,0004.76,0004.04
2023-11-23 23:59:00,SystemResetWarning,0830.4,4.99,000.00,020.7,019.8,000.0,029.0,021.9,18.0,0000.0,0010.52,0004.78,0004.06
